Terug naar catalogus

STARLINK-1361

ActiefCommunicatieVLEO
NORAD 45567·PAYLOAD·🇺🇸 United States

Gelanceerd Apr 22, 2020 vanaf Cape Canaveral Space Force Station

Loading…

Volgende Passages (komende 24 uur)

TLE

VersSource: CelesTrak SupGP

Epoch: Sep 14, 2026, 20:41 UTC

1 45567C 20025AN  26257.86229167  .00121090  00000+0  62046-3 0  2579
2 45567  53.0354 225.8998 0005566  59.9260 124.5649 15.80495189    17

Volg STARLINK-1361 in realtime met AllMySat

Download on the App Store